Location: York
(53.9600°N, 1.0873°W)
Time: 15:52:35
(UTC+01:00)

ISS - Visible Passes

Search period start: 22 October 2019 00:00
Search period end: 31 October 2019 23:00
Orbit: 411 x 421 km, 51.6° (Epoch: 22 October)

Date Brightness Start Highest point End Pass type
(mag) Time Alt. Az. Time Alt. Az. Time Alt. Az.
25 Oct -0.7 06:37:27 10° SSE 06:38:47 12° SE 06:40:07 10° ESE visible
27 Oct -1.4 05:35:14 10° SSW 05:37:53 21° SSE 05:40:32 10° E visible
28 Oct -1.1 04:47:33 11° S 04:49:27 16° SE 04:51:35 10° ESE visible
29 Oct -0.7 04:01:15 11° SE 04:01:15 11° SE 04:02:07 10° ESE visible
29 Oct -2.4 05:34:10 11° SW 05:37:04 35° SSE 05:40:10 10° E visible
30 Oct -2.1 04:47:44 24° S 04:48:32 27° SSE 04:51:27 10° E visible
30 Oct -3.2 06:21:36 10° WSW 06:24:55 55° S 06:28:14 10° E visible
31 Oct -1.1 04:01:14 17° ESE 04:01:14 17° ESE 04:02:37 10° E visible
31 Oct -3.1 05:34:08 19° WSW 05:36:18 49° SSE 05:39:35 10° E visible
